This is the latest recevied weather packets stored in our database for station/object ALTO-WX. If no packets are shown the sender has not sent any weather packets the latest 10 day(s).
| Time | Temp. | Humidity | Pressure | Rain* | Wind** | Luminosity | Snow |
|---|---|---|---|---|---|---|---|
| 1777770933 | 5° C | 58% | 985.1 hPa | 0 mm | - | - | - |
| 1777770059 | 5° C | 58% | 985.1 hPa | 0 mm | - | - | - |
| 1777769133 | 5.56° C | 46% | 985.9 hPa | 0 mm | - | - | - |
| 1777768247 | 6.11° C | 46% | 986.2 hPa | 0 mm | - | - | - |
| 1777767333 | 6.67° C | 46% | 986.2 hPa | 0 mm | - | - | - |
| 1777766461 | 7.22° C | 46% | 986.2 hPa | 0 mm | - | - | - |
| 1777765534 | 7.22° C | 39% | 985.9 hPa | 0 mm | - | - | - |
| 1777764646 | 7.78° C | 39% | 986 hPa | 0 mm | - | - | - |
| 1777763734 | 7.78° C | 39% | 986 hPa | 0 mm | - | - | - |
| 1777762860 | 8.33° C | 39% | 986 hPa | 0 mm | - | - | - |
| 1777761934 | 8.33° C | 38% | 986.3 hPa | 0 mm | - | - | - |
| 1777761052 | 8.33° C | 38% | 987 hPa | 0 mm | - | - | - |
| 1777760134 | 8.89° C | 38% | 987 hPa | 0 mm | - | - | - |
| 1777759259 | 8.89° C | 38% | 987 hPa | 0 mm | - | - | - |
| 1777758334 | 8.89° C | 38% | 987.1 hPa | 0 mm | - | - | - |
| 1777757452 | 8.89° C | 40% | 986.9 hPa | 0 mm | - | - | - |
| 1777756534 | 8.89° C | 40% | 986.8 hPa | 0 mm | - | - | - |
| 1777755663 | 8.89° C | 40% | 986.8 hPa | 0 mm | - | - | - |
| 1777754734 | 8.89° C | 37% | 987.2 hPa | 0 mm | - | - | - |
| 1777753852 | 8.89° C | 36% | 987.7 hPa | 0 mm | - | - | - |
| 1777752934 | 8.89° C | 36% | 987.7 hPa | 0 mm | - | - | - |
| 1777752059 | 8.89° C | 36% | 987.7 hPa | 0 mm | - | - | - |
| 1777751134 | 8.33° C | 40% | 987.9 hPa | 0 mm | - | - | - |
| 1777750247 | 8.33° C | 40% | 987.9 hPa | 0 mm | - | - | - |
| 1777749334 | 8.33° C | 40% | 987.9 hPa | 0 mm | - | - | - |
* Rain latest hour (hover to see other rain measurements)
** Current wind speed in m/s (hover to see current wind gust speed)